Theta_e
317 319 320 325 327 331 330 328 334 332 333 327 320 325 322 322 323 320 320 321 321 319 318 319 319 319 320 319 319 318 318 318 319 325 324 325 322 312 313 313 313 313 311 316 321 319 314 316 318 320 323 323 324 325 326 328 330 331 332 333 333 334 335 335 336 337 337 338 338 338 337 337 337 337 336 335 333 331 331 332 331 329 328 327 325 323 321 319 318 319 319 318 317 315 315 312 310
317 319 320 326 328 332 330 328 336 335 333 325 320 323 319 321 322 319 321 320 320 319 318 319 319 319 318 318 319 317 317 317 319 324 319 317 317 313 313 313 313 313 312 315 320 322 315 313 316 318 321 323 323 322 321 321 321 324 327 331 332 333 334 335 336 337 337 337 337 337 337 336 337 336 336 336 334 331 330 330 331 331 330 328 326 322 320 319 318 317 317 315 314 312 313 312 310
317 318 319 327 329 329 330 331 338 335 330 322 318 321 320 320 319 319 320 319 319 318 318 318 319 319 318 318 318 317 317 315 316 320 314 312 314 313 313 312 313 313 313 314 319 326 321 314 313 314 317 320 322 323 323 321 319 319 321 324 328 330 333 335 335 335 336 336 336 336 336 336 336 336 336 336 335 333 331 329 329 331 331 330 327 324 323 323 320 317 316 314 313 311 311 311 310
317 318 321 327 331 330 333 336 338 335 325 321 320 319 319 320 320 319 318 318 318 318 318 318 318 318 317 318 317 317 317 315 313 314 313 312 312 312 312 312 313 312 313 313 317 324 321 314 312 312 313 316 319 322 324 325 325 324 323 323 324 326 328 332 333 334 334 335 335 336 336 336 336 335 335 335 335 334 333 331 329 330 330 329 328 329 330 330 326 322 318 313 311 311 311 310 309
316 319 323 325 332 329 329 331 333 332 321 322 322 317 319 319 319 318 317 319 317 318 317 317 317 317 318 317 317 317 316 315 313 312 313 312 312 312 312 312 313 312 312 312 314 316 314 312 311 311 311 313 316 321 325 326 326 325 325 326 325 325 325 326 328 331 334 333 333 334 335 335 336 335 334 335 334 334 333 332 332 330 329 328 329 332 335 334 330 328 326 322 315 311 309 310 310
317 322 323 323 328 324 328 329 325 325 319 323 322 316 320 318 318 317 316 318 317 317 316 316 316 316 317 316 316 314 313 314 313 312 313 314 314 313 313 313 313 313 312 312 313 312 311 312 311 311 311 311 313 316 320 323 325 324 325 326 327 327 326 326 325 327 331 332 332 332 333 334 335 334 334 334 334 334 333 333 333 331 330 327 327 329 333 335 333 331 332 332 329 320 313 309 310
318 323 324 324 326 323 332 331 322 325 318 320 321 317 320 316 317 317 317 318 317 317 316 316 316 316 316 316 315 313 312 312 312 312 314 315 314 314 314 314 313 313 313 313 313 312 312 312 312 311 311 311 312 312 314 318 321 324 325 325 327 327 326 327 327 327 328 330 331 331 331 332 333 333 334 333 333 333 333 332 332 331 330 328 327 328 330 333 334 334 333 334 334 333 325 314 309
319 322 321 327 331 327 332 327 322 327 320 317 319 318 318 316 317 317 318 318 317 317 315 316 315 316 315 315 315 313 312 311 311 313 314 314 314 314 313 313 313 313 313 313 313 313 313 313 313 312 312 311 311 312 312 313 316 321 324 325 326 325 324 325 326 327 328 330 330 330 331 332 332 333 333 333 333 333 333 333 333 332 330 329 328 329 329 330 333 333 333 333 334 335 334 325 313
320 321 321 328 332 329 331 326 322 323 319 318 318 317 316 317 317 317 318 317 317 316 314 316 315 316 314 313 313 312 312 310 311 312 312 312 313 313 312 313 312 312 312 312 313 313 313 313 313 313 313 313 312 311 312 312 313 316 320 324 326 324 324 324 325 326 328 329 330 330 330 331 330 331 332 332 332 332 332 332 333 332 331 329 327 329 330 329 330 331 331 332 333 333 335 334 323
322 321 322 329 329 326 327 324 322 320 318 318 316 316 316 317 317 316 316 316 316 315 314 315 315 315 314 313 312 311 311 310 311 310 310 311 312 311 311 311 311 311 311 311 311 311 312 312 312 312 313 313 313 313 312 312 312 313 316 319 323 324 325 324 324 326 327 327 328 328 329 329 329 329 330 331 332 331 331 331 332 332 331 329 326 328 330 331 330 330 330 329 330 332 333 335 333
322 320 323 330 330 325 322 322 322 319 317 317 316 316 316 317 317 316 316 315 315 314 314 315 315 315 313 312 311 310 310 310 310 310 310 310 310 310 310 310 310 310 309 309 310 310 310 310 311 311 312 312 312 313 313 312 312 312 313 315 317 320 323 323 324 326 327 327 327 327 326 327 326 326 326 329 331 331 331 331 332 332 331 330 327 326 328 330 331 331 330 329 329 331 332 333 335
319 324 328 328 329 324 322 324 320 319 319 319 317 316 316 316 316 316 316 314 314 314 314 314 314 314 313 312 310 309 310 310 309 309 309 309 309 309 309 308 309 308 308 307 308 308 309 309 310 310 310 311 311 312 312 312 312 312 312 313 314 315 317 319 320 321 324 326 328 327 325 324 324 323 322 323 327 330 331 331 332 332 332 330 327 327 327 329 330 331 330 329 329 330 331 332 334
317 324 328 326 330 325 322 324 321 323 321 318 318 316 316 315 315 315 315 314 314 314 313 314 314 314 313 311 309 309 310 309 308 309 309 309 308 308 308 307 307 307 306 305 306 307 307 307 307 308 308 309 310 311 311 311 311 312 312 312 313 313 314 315 316 316 317 320 323 325 326 325 323 323 322 321 323 326 327 329 331 331 331 330 328 327 327 328 329 330 330 329 328 328 330 332 332
318 321 324 328 333 324 321 322 323 327 320 317 317 316 317 315 316 315 315 315 314 314 313 314 313 314 314 311 309 308 308 307 308 308 308 308 307 307 306 306 306 305 304 304 304 304 305 305 305 305 306 306 307 309 310 311 311 312 312 313 313 313 312 313 313 314 315 315 316 318 320 321 320 321 322 322 323 322 319 320 326 330 331 330 329 328 327 328 329 329 329 329 328 328 328 330 331
318 319 324 329 332 324 321 322 324 326 318 318 318 315 316 315 316 314 315 315 314 313 313 314 313 314 313 311 308 306 306 306 307 307 307 307 307 306 305 305 304 304 304 303 303 303 303 303 303 303 303 303 304 304 306 308 310 311 312 314 315 315 314 314 314 313 314 314 314 314 315 315 316 316 318 319 320 318 315 314 320 328 331 330 330 329 327 327 328 328 328 329 328 329 328 329 330
316 321 329 329 330 325 320 321 325 324 317 317 316 315 315 314 316 315 314 314 313 313 313 313 312 312 310 308 307 306 306 306 306 306 307 307 306 305 304 304 304 303 303 303 303 303 303 303 303 303 303 303 302 303 303 304 305 307 309 311 313 315 316 317 317 316 315 315 315 315 314 314 314 314 314 314 314 314 314 313 318 326 330 329 330 330 328 326 326 327 327 329 328 328 328 328 330
318 327 333 330 329 324 319 321 323 321 317 316 315 314 315 314 315 314 314 314 312 312 311 310 309 309 307 307 306 305 305 305 306 306 306 305 304 304 303 303 303 303 303 303 303 303 303 303 303 303 303 303 303 303 303 303 303 303 304 305 307 310 313 315 318 319 319 318 318 318 317 315 315 315 315 315 314 313 312 312 317 326 329 328 328 329 329 326 324 325 326 327 328 328 328 328 329
322 331 330 328 329 321 319 318 317 318 316 314 314 314 315 315 314 314 314 312 311 310 309 308 307 307 306 306 305 305 305 305 304 304 304 303 302 302 302 302 302 302 302 303 303 303 303 303 303 303 303 303 303 303 303 303 302 303 303 303 303 304 306 309 314 318 320 320 320 320 320 319 317 318 318 319 317 314 312 311 316 323 328 328 326 328 329 328 325 325 325 326 327 327 328 328 328
323 329 325 329 330 319 316 315 314 316 314 314 314 314 314 314 313 314 314 311 310 309 308 307 306 305 305 305 304 304 304 303 303 302 302 301 301 301 300 300 300 301 301 301 301 301 302 302 302 302 302 303 303 303 303 303 303 302 302 302 302 302 302 303 305 310 315 318 320 321 322 322 322 322 322 321 320 318 315 313 316 321 326 328 326 326 328 329 327 325 325 325 325 327 328 328 327
320 322 324 332 326 317 316 314 314 314 314 314 314 314 313 313 313 314 313 311 310 309 308 307 305 304 304 304 304 303 303 303 302 302 302 301 300 300 299 299 299 299 299 299 300 300 300 300 301 301 301 301 302 302 302 303 303 302 302 302 301 301 301 301 301 302 305 310 315 319 321 323 323 324 324 323 322 321 320 318 319 321 324 326 326 325 325 328 328 326 325 325 325 327 327 328 327
318 319 326 329 319 317 318 314 314 314 314 314 313 313 313 313 314 313 313 313 310 308 308 307 305 304 303 303 303 303 302 302 301 301 301 300 300 299 299 299 298 299 299 299 299 299 299 299 299 299 299 299 300 300 300 301 300 301 302 302 301 300 300 300 300 300 301 302 306 311 316 320 322 323 324 324 324 323 323 323 323 323 323 324 325 325 324 326 328 327 325 325 326 327 327 328 327
316 318 320 319 314 317 317 314 314 314 313 314 312 312 312 313 313 313 314 314 310 307 307 307 305 304 303 303 302 302 301 301 300 299 299 299 299 299 299 299 299 298 298 298 297 297 297 297 297 297 297 297 297 297 297 298 298 299 299 299 299 299 299 299 299 299 300 300 300 304 308 313 318 321 322 323 324 325 325 324 324 323 324 323 323 324 324 324 327 328 326 325 327 327 327 327 326
317 318 315 315 315 316 316 314 314 313 313 313 312 312 312 313 312 312 312 310 308 307 307 306 305 305 304 303 302 302 301 300 300 299 299 299 299 299 299 298 298 297 297 297 296 296 296 296 296 295 295 295 295 295 295 296 296 296 296 297 297 297 297 297 298 298 298 298 299 300 304 309 313 316 319 321 322 324 325 326 326 326 326 325 324 323 323 324 326 328 327 325 327 327 327 326 326
318 319 315 315 316 315 315 314 313 313 313 312 311 312 312 312 312 311 309 307 307 306 306 305 305 304 304 304 302 302 301 300 300 299 299 299 299 299 298 297 297 296 296 296 296 296 295 295 295 295 295 295 294 295 295 295 295 295 296 296 295 295 295 295 295 296 297 297 298 298 301 307 311 314 316 318 320 322 323 325 326 327 328 328 327 324 322 324 326 328 327 325 326 327 326 326 326
319 320 315 315 316 315 315 314 313 313 312 311 311 312 312 312 312 309 307 307 306 306 306 305 304 304 304 303 302 301 301 300 300 300 299 298 298 298 297 296 296 295 295 295 295 295 295 294 294 294 294 294 294 295 295 295 295 295 295 295 295 295 295 295 294 295 295 296 297 297 298 302 307 311 313 315 318 320 321 322 324 325 326 328 329 328 326 325 326 328 328 326 326 326 326 325 325
317 316 314 314 315 315 314 313 312 313 312 311 311 312 311 311 312 309 307 307 306 306 305 305 304 304 303 302 301 301 301 300 300 299 298 298 297 297 296 295 295 295 295 295 295 295 295 294 294 294 294 294 294 295 295 295 295 295 295 295 295 295 295 294 294 295 295 294 295 296 297 299 302 305 308 312 315 318 319 321 322 323 324 327 329 330 329 328 327 329 328 326 326 326 325 325 324
316 314 313 313 313 314 314 313 312 313 312 311 311 312 312 311 313 310 307 306 306 306 305 304 304 303 302 301 300 300 300 300 299 298 298 297 296 295 295 295 295 295 294 294 294 294 294 294 294 294 294 294 294 295 295 295 295 295 296 296 296 295 295 295 295 295 294 294 294 294 295 296 297 299 301 305 310 315 318 319 320 321 323 324 326 328 329 329 329 329 328 326 326 326 325 324 324
314 313 313 313 313 313 313 313 313 312 312 312 312 311 311 311 313 311 306 306 306 306 304 303 303 302 301 301 300 300 300 299 298 298 297 296 295 295 295 294 294 294 294 294 294 294 294 294 294 294 294 294 294 294 294 295 295 295 295 295 296 296 296 295 295 295 294 294 294 293 294 295 295 296 297 299 303 308 314 318 320 320 321 322 324 326 328 328 328 329 328 327 327 326 324 324 324
313 313 314 314 312 313 313 313 313 312 312 312 311 312 314 312 311 309 306 306 306 305 304 302 302 301 301 301 300 299 299 299 298 297 297 296 295 294 294 294 294 294 294 294 294 294 294 293 293 294 294 294 294 294 294 294 294 295 295 295 295 295 295 295 295 295 295 294 294 294 293 293 294 295 296 296 298 301 307 314 318 320 321 321 322 324 326 327 328 329 329 328 327 325 324 325 325
313 312 314 316 314 315 314 312 313 312 312 313 311 314 317 313 309 307 306 306 306 304 303 302 301 301 301 300 300 299 299 298 298 297 296 295 295 294 294 294 294 294 294 294 294 294 293 293 293 293 293 293 294 294 294 294 294 294 294 294 295 294 294 294 294 295 295 295 295 295 294 293 293 294 295 295 296 297 300 307 314 318 320 320 321 322 324 325 327 328 328 328 327 325 325 324 325
314 312 316 319 316 320 317 311 313 312 312 313 310 313 315 311 307 307 307 306 305 304 303 302 301 301 300 300 300 300 299 298 298 297 296 295 294 294 294 294 293 293 293 293 293 293 293 293 293 293 293 293 293 293 293 293 293 293 293 294 294 294 294 294 294 294 294 295 295 295 295 294 293 293 295 295 295 296 297 300 306 313 317 319 319 320 322 323 325 327 328 328 327 325 324 324 324
315 314 322 324 318 321 317 310 311 312 313 312 310 314 314 309 307 307 306 306 306 304 302 302 301 301 300 300 300 299 299 298 297 297 296 295 294 294 294 293 293 293 293 293 293 293 293 293 293 293 293 293 293 293 293 293 293 293 293 293 293 293 294 294 294 294 294 294 295 295 295 294 293 293 294 295 295 295 295 297 300 306 312 317 318 319 320 321 323 326 328 328 326 325 324 323 323
321 317 321 323 317 317 315 311 311 311 313 312 310 313 315 310 308 307 306 305 305 303 302 302 301 301 300 300 300 299 299 297 297 297 296 295 294 294 293 293 293 293 293 293 293 293 293 293 293 293 293 293 293 293 293 293 293 293 293 293 293 293 293 293 293 293 294 294 294 295 295 294 294 294 294 294 295 295 295 296 297 300 306 312 316 318 319 320 323 325 327 327 326 325 324 323 323
328 323 319 319 317 314 314 314 311 310 312 313 311 311 313 312 308 307 306 305 304 303 302 302 301 301 300 300 299 299 299 297 297 297 296 295 295 294 293 293 293 293 293 293 292 292 293 293 293 292 293 293 293 293 293 293 293 293 292 292 292 292 293 293 293 293 293 294 294 294 294 295 295 295 294 294 295 295 295 295 295 297 301 306 310 314 317 320 322 323 325 326 326 325 324 324 324
324 323 319 317 318 313 312 313 311 312 312 312 313 312 312 311 307 306 305 305 304 302 302 301 301 301 300 300 299 299 298 297 297 297 296 295 295 294 293 293 292 292 292 292 292 292 292 292 292 292 292 293 293 293 293 293 292 292 292 292 292 292 292 292 293 293 293 293 294 294 294 295 295 296 295 295 296 296 296 296 295 296 299 303 306 309 314 319 322 323 325 325 325 325 324 324 324
318 317 316 315 316 313 311 312 311 311 311 312 312 312 312 310 308 306 305 304 304 302 302 301 301 300 300 300 299 299 298 297 296 296 296 295 295 294 293 292 292 292 292 292 292 292 292 292 292 292 292 293 292 292 292 292 292 292 291 292 292 292 292 292 292 293 293 293 293 293 293 294 295 295 295 295 297 297 297 296 295 295 296 300 304 305 309 316 322 323 323 325 325 325 325 325 325
313 313 315 314 314 312 311 312 311 309 311 314 313 312 311 310 309 307 304 304 302 301 301 301 300 300 300 299 299 298 297 297 296 296 296 295 295 294 292 292 292 292 292 292 292 292 292 292 292 292 292 292 292 292 292 291 291 291 291 291 291 292 292 292 292 292 293 293 293 293 293 293 294 294 295 296 297 298 297 296 296 295 295 297 301 304 306 311 318 322 323 324 325 325 325 325 325
312 313 314 315 315 313 312 312 311 308 310 314 313 311 311 310 309 306 303 303 301 300 300 300 300 300 300 299 298 297 296 296 296 295 295 295 295 293 292 292 292 292 292 291 292 292 292 292 292 292 292 292 292 291 291 291 291 290 291 291 291 291 292 292 292 292 292 292 292 292 292 293 294 294 295 295 296 297 297 297 296 296 295 295 298 302 304 306 310 318 324 325 325 325 324 325 325
314 314 313 315 315 315 314 313 311 309 309 314 313 310 309 309 310 306 302 302 301 301 301 300 300 300 299 299 298 297 296 296 295 295 295 295 294 293 292 292 291 292 291 291 292 292 292 292 291 292 292 291 291 291 290 290 290 290 290 290 291 291 291 291 291 291 291 292 292 292 292 293 293 294 294 295 295 295 296 297 297 297 296 295 296 300 302 303 305 312 321 325 324 324 324 324 325
315 314 314 316 316 316 316 314 312 310 309 312 311 309 308 307 309 307 302 302 302 301 301 301 300 300 299 299 298 296 296 296 295 295 295 294 294 293 292 292 291 291 291 291 292 291 291 291 291 291 291 291 290 290 290 290 289 289 289 290 290 290 290 290 290 290 291 291 291 291 292 292 293 294 294 294 295 295 296 296 297 297 297 295 295 297 300 302 302 305 313 322 324 323 324 323 323
318 318 315 316 315 315 316 315 312 311 311 313 310 308 310 308 308 306 302 301 301 300 300 300 300 299 299 298 297 296 296 296 295 295 294 294 293 293 292 292 291 291 291 291 291 291 291 291 291 291 290 290 289 289 289 289 289 288 288 289 289 288 288 288 288 288 289 289 289 290 291 292 292 293 293 294 294 295 295 295 296 297 297 296 295 295 299 301 302 302 307 317 324 323 322 323 322
319 320 318 317 315 313 316 315 312 312 313 313 309 309 313 311 308 305 302 301 301 300 299 298 299 299 298 297 296 296 296 295 295 294 294 294 293 293 292 291 291 291 291 291 291 291 291 291 290 290 290 289 289 289 289 288 288 288 287 287 287 286 286 286 286 286 286 286 287 287 289 290 291 292 292 293 293 294 295 295 296 297 297 297 295 294 297 300 301 301 304 310 319 323 322 322 321
316 318 317 315 312 311 314 313 311 313 313 311 310 310 310 310 309 305 302 302 301 300 298 297 298 299 297 296 296 296 295 295 295 294 294 293 293 292 292 291 291 291 291 291 290 290 290 290 290 289 289 289 288 288 288 288 287 287 286 285 285 285 285 285 285 285 285 285 285 286 287 288 289 291 292 292 293 293 294 294 295 296 296 297 296 294 295 299 301 301 302 304 311 320 323 321 321
318 315 311 311 310 311 313 311 311 312 311 309 309 309 308 308 309 305 302 302 301 300 299 298 297 298 297 296 296 295 295 294 294 294 293 293 293 292 291 291 291 291 291 290 290 290 290 290 289 289 288 288 288 288 288 287 287 286 285 285 285 285 284 284 285 285 285 284 285 285 285 286 288 290 291 292 293 293 294 294 295 296 297 297 297 295 294 297 299 300 301 302 305 313 321 322 321
316 312 309 309 310 311 311 311 310 309 308 308 309 309 308 310 311 306 302 303 302 300 299 298 296 296 296 296 296 295 294 294 294 293 293 293 292 292 291 291 291 291 291 290 290 290 290 289 289 288 288 288 288 287 287 287 286 285 284 284 284 284 284 284 284 284 284 284 284 284 285 285 286 288 290 292 293 293 294 294 295 296 297 297 297 296 294 294 297 300 300 301 303 306 316 322 321
310 309 309 311 311 310 309 309 308 307 307 309 309 308 308 310 313 308 303 304 304 300 298 297 296 296 296 295 295 295 294 294 293 293 293 292 292 291 291 291 291 291 290 290 289 289 289 289 288 288 288 288 287 287 287 286 286 284 284 283 283 283 283 283 283 283 284 284 284 284 284 286 286 287 289 291 292 293 294 294 295 296 296 296 297 296 295 294 295 299 300 300 302 303 309 320 321
307 308 311 312 313 310 309 309 308 308 311 311 309 309 307 308 311 307 304 306 305 301 297 297 295 295 296 295 295 294 294 294 293 293 293 292 292 291 291 291 291 291 290 289 289 289 289 289 288 288 288 287 287 287 286 286 285 284 283 283 282 282 282 282 282 283 283 283 283 284 284 285 286 287 288 289 290 292 293 294 294 295 295 296 297 297 296 294 294 297 299 299 301 302 305 313 320
308 311 311 312 315 314 311 311 309 310 316 314 308 307 306 307 309 307 305 305 303 300 298 296 295 294 295 295 294 294 294 294 293 293 292 292 291 291 291 291 291 290 290 289 289 289 289 288 288 288 288 288 287 286 286 285 284 283 282 282 282 281 281 281 281 282 282 283 283 283 283 283 284 285 286 288 289 291 292 294 295 296 296 297 297 297 296 295 294 295 298 299 299 302 303 307 316
311 313 310 311 316 317 315 314 311 310 314 310 304 305 306 305 307 308 306 303 300 299 297 296 295 294 295 295 294 294 294 293 293 292 292 291 291 291 291 291 291 290 289 289 289 288 288 288 288 287 287 287 287 286 286 285 284 283 282 282 281 281 281 281 281 281 282 282 282 282 282 282 283 284 285 287 289 290 292 294 295 296 297 296 296 296 296 295 294 294 296 299 299 300 303 304 309
311 312 312 313 314 315 315 315 313 314 315 308 302 303 306 306 306 306 304 300 297 297 296 296 295 294 295 294 294 294 293 293 292 292 292 291 291 291 291 291 290 290 289 289 289 288 288 288 288 287 287 287 286 286 285 285 284 283 282 281 281 280 280 280 280 280 281 281 281 281 281 281 281 282 284 286 287 290 292 293 295 295 295 295 295 296 296 296 295 294 295 298 299 299 302 303 305
310 311 312 313 313 315 316 315 315 315 314 309 302 304 308 309 306 302 299 296 295 296 295 295 295 294 294 294 294 294 293 293 292 292 292 291 291 291 290 290 290 289 289 288 288 288 288 288 287 286 286 286 286 285 285 284 284 283 282 281 281 280 280 279 279 279 279 279 280 280 280 280 280 281 282 285 286 289 292 293 294 295 296 296 296 297 297 296 295 295 294 296 299 298 300 303 304
310 307 308 310 312 313 313 312 311 309 308 307 304 306 309 306 301 297 295 295 294 295 294 294 295 294 294 294 293 293 293 293 292 292 292 291 291 291 290 290 289 289 289 288 288 288 288 287 287 286 286 285 285 285 284 283 283 283 282 281 281 280 279 278 278 278 278 278 278 279 279 279 279 279 281 284 286 288 291 293 294 295 296 296 297 296 296 296 295 295 294 295 298 299 299 302 303
309 305 308 310 308 307 308 309 307 305 306 307 305 307 307 304 300 295 295 296 295 294 293 293 294 294 294 294 293 293 293 293 292 292 291 291 291 290 290 289 289 289 288 288 288 288 287 287 286 285 285 285 285 284 283 283 282 283 283 282 281 280 279 278 277 276 277 277 277 277 278 278 278 279 280 282 285 287 289 292 293 294 295 296 297 297 296 296 296 294 294 295 297 299 299 301 303
308 308 309 309 305 304 306 308 307 305 307 307 306 306 305 306 304 297 295 296 295 294 294 293 293 294 294 293 293 293 293 292 292 291 291 291 290 290 290 289 289 288 288 288 288 287 287 286 285 285 285 285 284 284 284 283 282 283 283 282 281 280 279 278 277 276 276 276 276 276 276 277 278 279 279 281 284 285 286 289 292 293 294 295 296 297 297 297 296 295 294 295 297 299 300 301 303
305 306 305 305 307 306 305 306 307 308 309 309 308 306 304 305 304 298 295 296 295 294 294 294 294 293 293 293 293 293 293 292 291 291 291 291 290 290 289 289 289 288 288 287 287 287 287 286 285 284 284 284 283 283 282 283 282 282 282 282 281 280 279 278 277 276 275 275 275 275 275 276 277 278 278 280 282 284 285 287 291 293 294 295 296 297 297 296 296 295 294 294 296 298 300 300 302
300 301 301 302 305 306 305 305 306 309 309 310 310 309 306 305 303 299 296 296 295 294 295 295 294 293 293 293 293 292 292 292 291 291 291 290 290 289 289 289 288 288 287 287 287 286 286 286 285 284 284 284 283 282 281 281 282 282 282 282 281 280 279 279 278 276 275 274 274 275 275 276 277 277 277 278 281 283 284 285 289 292 293 294 295 296 297 297 297 296 295 294 295 297 300 300 301
300 301 301 301 300 303 305 304 303 306 307 308 308 308 308 305 302 300 298 297 296 295 296 297 294 293 293 293 292 292 292 291 291 291 290 290 289 289 289 289 288 287 287 287 286 286 285 285 284 283 283 283 283 282 281 281 281 281 281 282 282 281 280 279 278 276 274 274 274 274 274 275 276 276 277 277 279 281 282 283 287 290 291 293 294 295 296 297 297 297 295 295 294 296 300 300 301
303 302 302 302 301 302 305 305 303 303 304 306 306 307 309 305 300 299 299 298 296 295 296 296 294 293 293 293 292 292 292 291 291 291 290 289 289 289 289 288 288 287 287 287 286 286 285 285 284 283 283 282 281 281 281 280 281 281 281 281 281 281 280 278 278 276 275 274 274 274 274 274 275 276 277 277 278 280 281 282 285 288 290 292 294 294 295 296 297 297 296 295 295 295 299 300 300
Wind_Speed
8 6 2 3 3 4 6 3 2 2 3 3 0 2 2 2 3 4 5 5 4 4 7 6 6 7 4 2 1 11 14 8 4 6 5 1 5 17 19 20 22 20 16 15 17 16 13 12 13 14 15 14 12 13 13 12 12 11 11 10 10 10 11 11 11 11 11 12 12 11 11 12 11 11 12 13 13 15 17 17 15 13 12 11 11 11 13 13 13 13 14 13 13 13 14 16 15
8 5 3 3 5 4 4 2 2 2 4 4 3 2 1 3 5 4 5 4 2 3 7 7 6 7 8 4 3 13 18 18 15 13 11 12 9 17 21 22 21 18 16 13 16 17 15 12 13 13 13 13 13 14 15 16 15 15 13 12 11 12 12 12 13 12 13 14 13 13 13 13 13 13 13 14 14 15 16 16 15 15 16 15 14 13 13 14 14 14 13 13 13 13 14 16 16
9 6 4 3 7 5 2 2 3 3 4 3 3 3 2 4 4 3 6 7 5 6 9 8 7 7 10 8 5 8 11 22 23 12 13 21 17 20 23 21 18 15 14 12 14 16 16 15 14 14 13 13 13 13 14 16 16 17 16 14 14 13 13 13 13 14 15 15 15 15 15 14 14 15 15 16 17 17 16 16 16 16 17 17 16 15 14 13 13 14 14 13 13 13 14 16 16
9 7 5 3 5 4 2 3 2 4 4 3 1 4 2 4 4 2 7 11 8 9 10 9 6 5 9 10 7 8 10 18 26 19 16 22 18 18 18 16 14 11 11 11 12 13 15 15 14 13 13 13 13 13 13 14 15 15 15 15 16 16 16 15 15 15 16 17 16 16 17 16 16 16 17 18 18 18 18 18 17 16 16 17 17 16 14 14 13 14 14 13 13 13 14 16 16
7 4 6 5 4 2 2 2 0 5 3 3 3 2 2 3 4 3 6 11 11 10 10 9 4 5 13 17 13 9 10 10 21 25 18 19 17 16 16 15 13 10 10 9 11 11 12 13 12 11 11 11 12 12 12 14 15 15 15 15 16 17 17 17 18 17 17 18 18 19 18 17 17 18 18 19 19 19 20 19 18 18 17 17 16 14 14 15 15 14 14 13 12 12 14 16 16
5 2 6 6 3 1 2 2 2 4 1 3 5 2 2 3 4 5 5 10 12 11 10 9 3 5 15 20 23 18 17 13 16 23 18 18 17 16 16 15 14 13 12 10 10 11 11 11 11 11 10 11 12 12 12 13 14 16 16 16 16 16 17 18 19 19 19 19 19 20 20 19 19 20 19 19 19 20 21 21 20 19 18 17 15 14 15 15 14 13 13 14 14 13 15 17 16
6 5 6 6 2 2 3 3 2 2 1 3 6 4 3 4 4 5 4 6 8 9 11 10 6 9 10 11 19 21 21 19 18 18 16 15 16 15 14 13 13 13 14 12 11 11 11 10 9 9 10 11 12 13 14 14 14 15 16 17 16 16 17 18 19 19 21 21 21 21 21 21 22 22 21 20 20 21 22 23 22 21 20 18 16 16 16 16 15 14 14 15 15 15 16 18 18
7 6 4 4 2 3 3 2 2 3 2 3 6 6 5 5 5 4 2 3 4 6 8 9 9 10 9 13 15 15 20 23 20 16 14 14 14 14 13 13 13 14 14 13 12 11 11 11 10 9 8 9 11 13 15 16 16 15 16 16 17 17 17 18 19 20 21 22 22 23 22 22 23 23 23 23 22 23 23 23 23 23 22 20 18 17 17 17 17 16 15 16 17 17 17 18 19
8 6 3 3 2 3 1 1 1 2 3 4 5 7 7 5 4 3 2 3 5 8 7 6 8 7 11 21 16 16 23 23 20 17 18 16 15 14 14 15 15 16 16 15 15 14 13 12 12 11 9 9 9 10 13 15 16 17 16 16 16 17 18 18 19 20 22 23 23 24 24 24 24 24 25 24 23 24 24 24 25 25 25 23 21 19 19 19 19 18 17 17 17 18 19 19 19
7 4 1 3 2 3 2 0 1 2 3 5 6 7 5 3 5 6 4 5 6 8 8 6 11 14 15 17 13 17 22 21 20 20 21 18 15 15 15 16 16 16 16 17 17 16 16 15 14 13 12 10 10 9 10 12 14 16 17 17 17 17 18 19 19 19 21 23 24 24 25 26 26 26 27 26 25 26 25 25 27 26 25 25 24 22 21 20 20 19 19 19 18 19 20 20 19
5 3 1 3 3 2 0 2 2 3 3 4 5 6 5 3 5 6 7 8 9 10 9 5 8 20 20 14 13 15 17 21 22 21 19 16 15 15 16 16 16 16 17 17 16 17 17 17 16 15 15 14 13 11 11 11 12 14 16 18 18 18 18 19 20 20 21 22 24 24 25 26 27 27 28 28 27 28 27 27 28 28 27 26 25 24 24 22 21 21 20 20 20 20 22 22 21
4 3 3 3 2 1 2 3 4 4 3 2 2 4 7 8 5 3 6 6 9 13 12 7 3 13 13 9 12 14 17 22 21 17 15 15 15 15 16 16 17 17 18 18 17 18 18 18 18 17 17 16 16 15 14 13 12 12 13 16 18 20 20 21 21 21 21 22 23 24 25 25 27 27 27 29 28 29 30 30 29 29 28 27 26 25 25 25 24 22 22 22 21 21 23 24 23
4 2 5 2 3 2 1 3 4 3 4 1 2 2 7 9 6 3 7 7 9 11 9 9 3 9 9 7 11 18 19 21 17 14 13 13 15 15 16 17 18 19 20 20 20 21 21 21 21 21 20 19 18 17 16 15 14 13 13 14 16 18 20 22 22 23 23 23 24 25 26 26 27 29 29 29 29 29 31 32 31 30 30 29 28 28 27 27 26 25 24 23 22 22 23 25 24
3 2 4 1 1 1 2 3 2 4 2 2 1 3 7 6 5 6 9 7 8 10 7 8 6 10 8 5 11 20 18 17 14 12 11 12 13 14 16 17 18 20 21 23 23 24 23 24 24 24 24 24 23 21 19 16 15 14 14 14 15 16 18 20 22 23 25 25 26 26 26 27 28 30 30 30 30 30 31 33 33 33 33 31 31 30 29 29 28 28 26 25 23 23 24 26 25
3 1 3 1 3 2 1 2 3 5 2 2 3 7 11 7 5 8 9 7 9 9 6 8 6 6 5 5 10 16 14 13 12 9 9 10 12 14 16 17 19 20 22 23 24 26 26 26 27 27 27 28 28 27 25 21 19 17 15 15 15 16 17 18 19 21 23 25 26 27 28 28 29 30 31 32 32 32 32 33 34 34 33 32 32 32 32 31 30 30 28 27 25 24 25 26 26
1 0 4 2 3 2 0 2 3 5 1 1 5 9 10 5 5 6 5 8 15 14 10 13 12 10 13 15 12 10 10 10 9 7 7 9 11 13 15 17 19 20 23 24 26 27 28 28 29 30 30 30 30 30 29 27 26 24 22 20 18 17 17 18 19 20 21 22 24 25 26 28 29 30 31 32 33 33 33 34 35 34 32 31 32 33 34 33 32 31 30 29 27 26 26 27 27
2 1 4 2 1 0 1 1 2 3 1 1 6 8 5 2 3 5 5 12 21 22 22 21 19 18 19 18 11 7 7 7 6 7 9 12 15 17 18 20 20 21 23 25 26 27 27 28 30 31 31 32 32 32 32 31 30 29 28 27 25 22 20 19 19 20 21 22 23 24 24 25 25 27 28 30 32 33 34 34 35 34 33 32 32 34 35 35 33 32 31 30 29 28 27 28 28
3 2 3 2 2 1 1 2 2 3 2 1 5 7 6 2 2 5 11 21 25 25 26 25 22 21 18 15 10 7 6 6 8 10 14 18 20 22 23 24 25 24 24 26 27 27 28 28 29 30 31 31 32 33 34 34 33 32 30 30 29 29 27 25 23 22 23 23 24 24 25 24 24 24 25 27 29 31 32 33 34 35 34 33 33 34 35 36 35 33 32 31 30 29 28 29 29
3 2 2 3 4 2 2 4 4 5 4 2 5 6 7 2 2 4 8 15 21 20 18 22 23 19 15 12 9 8 7 9 13 15 18 21 23 25 26 27 27 27 28 29 30 30 31 30 31 31 32 32 32 32 34 34 35 35 34 33 31 30 30 30 28 26 25 25 25 25 26 27 27 26 25 25 27 29 30 32 32 33 35 35 34 35 36 37 37 35 34 32 31 30 30 30 30
2 3 1 5 4 2 3 9 9 8 6 4 5 4 5 3 3 5 8 10 13 12 10 15 20 18 15 12 10 9 9 11 15 17 19 21 24 26 27 28 27 27 29 30 31 33 33 34 35 35 35 34 34 34 34 34 34 35 35 36 35 34 32 30 30 29 28 27 27 27 27 28 29 29 28 27 27 29 29 30 31 32 34 35 36 36 37 38 38 37 35 34 33 32 32 31 31
2 2 3 6 2 2 4 9 10 9 9 5 5 5 4 5 4 6 12 9 6 7 13 15 19 19 16 13 11 10 11 14 17 18 20 21 22 24 25 26 26 26 28 30 32 34 35 37 37 38 38 38 38 38 37 36 36 35 35 35 35 35 35 34 32 30 29 28 28 28 28 29 30 31 31 30 30 30 31 31 32 32 34 35 36 36 37 38 39 38 36 34 34 34 33 32 32
3 1 2 2 3 2 4 8 9 9 9 6 6 6 4 4 5 7 13 6 4 12 17 18 20 18 14 13 12 12 14 17 18 20 21 20 21 22 24 25 27 27 28 31 34 35 37 39 39 40 40 40 41 41 41 40 40 39 38 37 36 36 36 35 34 33 31 29 28 28 29 29 30 31 32 32 32 32 34 34 34 35 36 36 36 36 37 37 39 39 37 35 34 35 34 33 32
2 3 1 2 3 3 6 8 8 7 7 6 4 4 4 4 9 8 13 12 14 18 18 18 17 14 12 11 10 11 14 16 17 19 20 21 20 21 25 27 29 30 30 33 35 36 38 40 40 40 40 40 41 41 41 41 42 42 41 41 40 38 37 35 34 34 34 32 30 28 29 29 29 30 32 33 34 34 34 35 36 37 39 39 37 37 39 38 39 40 38 37 35 35 34 34 34
2 3 3 1 4 5 7 7 5 6 5 4 5 5 4 6 9 10 18 20 22 19 16 16 14 12 9 8 9 11 13 15 16 18 19 21 21 21 25 28 30 33 32 34 36 37 39 40 40 40 41 41 42 42 42 42 42 43 43 42 41 40 39 38 36 33 32 32 33 31 30 30 29 29 31 33 35 36 35 35 35 36 39 42 41 40 40 40 40 40 40 39 37 36 35 35 35
4 2 3 1 5 7 8 6 4 3 3 4 8 6 8 6 14 12 19 22 22 19 15 14 13 11 9 8 11 11 12 14 14 15 18 20 21 21 25 30 32 34 35 35 36 38 39 40 41 41 42 42 43 43 42 42 43 43 43 42 42 40 40 40 40 36 32 30 31 33 33 33 32 30 30 32 34 37 38 37 35 34 37 41 43 43 42 41 40 41 42 41 39 37 37 37 36
2 1 2 2 5 6 6 5 3 1 2 6 7 6 7 16 20 8 17 23 20 18 16 14 13 11 10 10 11 10 11 13 15 16 17 20 24 25 27 32 34 35 36 36 37 38 39 41 41 42 42 42 42 42 42 42 42 42 42 42 42 41 41 41 40 39 37 33 30 30 32 34 36 35 33 32 33 35 37 38 37 35 36 39 41 43 43 41 41 42 43 42 40 39 38 38 37
1 2 5 6 8 7 5 5 3 3 5 6 6 3 2 15 13 2 16 23 20 19 16 15 13 12 12 11 10 10 11 14 16 17 19 22 27 29 30 32 34 35 36 37 38 38 39 41 42 42 42 42 41 40 40 41 41 41 40 40 41 41 42 43 42 41 41 41 36 31 30 32 36 38 37 35 34 35 36 37 38 37 38 38 39 42 43 42 43 44 44 42 41 40 39 38 37
2 4 8 9 9 7 6 6 5 3 4 6 7 4 4 7 4 9 23 23 20 19 18 16 14 14 13 11 10 11 12 13 15 18 21 24 28 30 30 31 33 34 35 37 36 36 39 41 42 42 42 42 41 41 41 40 40 39 39 40 40 40 41 42 43 43 43 43 42 37 32 31 34 37 40 39 37 37 36 36 37 38 39 39 39 40 42 45 46 45 45 43 41 40 38 37 37
3 2 4 6 4 2 6 6 6 3 2 5 9 6 2 4 5 19 28 25 20 19 20 18 16 15 13 11 11 12 13 13 14 18 22 23 27 29 29 30 31 33 34 35 35 36 40 41 41 41 41 42 42 42 42 42 41 41 40 40 41 42 43 43 43 44 43 44 45 42 37 33 33 36 39 41 40 39 38 37 37 36 37 38 39 39 42 45 47 48 47 45 43 41 39 37 36
3 1 2 2 6 4 7 7 5 4 3 4 5 4 4 2 11 25 29 26 23 21 22 19 17 16 13 11 10 12 13 13 13 16 20 22 26 27 27 29 30 32 33 34 35 37 40 40 40 40 40 41 41 42 43 43 43 44 44 43 43 44 45 46 45 44 43 43 44 45 42 36 34 35 38 40 41 40 39 39 39 38 35 35 36 39 42 44 46 49 49 47 45 43 40 38 37
1 1 2 3 2 4 7 7 6 4 4 4 1 2 6 2 14 27 28 27 25 23 22 20 19 16 14 12 10 10 10 12 12 15 18 21 24 26 27 30 31 31 32 34 36 37 39 39 39 39 40 40 42 43 43 44 44 45 46 46 46 45 46 47 48 46 44 43 44 45 44 41 37 36 37 39 40 40 40 39 39 39 38 35 34 36 41 43 45 51 54 51 47 45 42 40 38
2 1 3 2 3 4 6 5 7 7 4 4 4 3 5 4 14 24 27 26 24 23 22 20 19 16 14 12 10 9 8 11 12 14 16 18 23 27 28 30 31 31 32 34 35 36 37 37 38 39 40 41 42 43 44 44 45 46 47 48 47 47 47 48 49 48 46 44 44 44 45 44 39 38 38 39 41 40 39 39 40 39 39 38 34 35 39 42 43 51 58 55 49 47 44 41 38
3 2 2 3 2 3 3 3 5 7 2 3 4 3 4 3 13 21 23 24 23 23 22 20 19 16 13 10 9 7 6 10 11 12 13 15 21 27 29 30 31 31 32 32 33 36 36 37 38 39 40 41 43 44 44 45 46 47 49 49 48 47 47 48 49 49 47 46 45 45 47 45 41 40 40 41 43 42 39 38 39 39 40 40 36 34 38 42 42 46 53 51 47 48 45 43 39
4 2 1 4 3 3 2 5 4 5 3 4 3 3 6 4 11 19 21 23 23 22 21 21 19 15 13 10 8 6 5 9 10 9 10 13 19 27 28 30 31 30 31 31 32 34 35 36 38 39 41 41 43 44 45 46 47 50 51 51 50 49 48 48 49 49 49 47 46 47 46 44 42 42 43 42 43 44 41 38 38 38 39 41 41 37 37 42 44 43 50 50 46 49 47 44 41
3 3 3 4 4 3 4 4 3 4 3 5 3 4 7 4 8 15 18 22 22 21 22 21 19 16 13 10 8 6 5 8 8 6 9 12 17 25 28 29 30 29 30 31 33 34 34 36 38 39 41 41 42 43 45 47 49 52 53 52 52 51 50 49 50 50 50 49 48 47 45 43 42 43 44 44 43 44 43 41 39 38 37 39 43 44 39 41 45 44 50 55 51 50 49 45 42
6 5 3 4 5 5 6 5 3 5 3 6 6 6 6 4 7 11 16 20 20 20 21 20 18 16 13 10 8 5 4 6 7 6 8 12 16 22 27 29 29 29 30 32 33 34 35 38 39 40 40 40 42 44 47 49 51 52 53 54 53 53 52 52 51 50 50 50 48 47 47 45 43 43 44 43 43 44 44 45 43 39 37 37 41 47 43 42 44 44 47 55 55 52 49 46 43
3 3 3 5 6 6 6 5 3 3 3 6 7 6 7 5 8 11 17 18 18 19 19 20 19 16 13 11 8 5 4 3 6 7 8 12 15 21 27 29 29 29 31 33 34 35 35 37 39 40 39 40 43 47 49 50 50 52 53 54 54 54 54 53 53 51 50 50 49 48 48 46 45 43 43 42 42 43 45 47 45 42 39 36 38 45 47 46 43 43 47 55 59 56 50 48 48
2 3 4 6 5 7 8 5 3 2 1 5 5 6 8 7 8 11 16 14 15 21 20 19 20 16 14 11 9 6 4 1 5 7 8 12 15 21 27 29 30 30 31 32 33 34 35 37 38 39 40 42 46 47 49 49 50 51 51 52 53 53 53 52 53 53 51 51 50 48 47 46 45 44 42 41 42 44 46 47 46 44 41 37 38 41 48 52 47 42 49 59 60 58 54 51 53
3 3 2 4 4 5 7 3 1 1 0 4 5 7 8 9 10 9 17 16 15 23 23 21 21 18 15 11 10 7 3 0 4 8 9 12 16 21 26 29 30 29 31 31 32 34 36 38 38 39 42 45 47 47 47 48 50 51 50 50 49 50 52 52 52 51 49 50 50 48 46 44 44 43 42 42 43 45 45 46 46 45 42 37 38 40 43 54 53 44 45 59 59 54 54 52 56
4 4 2 4 4 2 4 4 4 4 2 4 7 10 8 8 9 6 14 17 16 19 21 20 20 17 14 12 11 7 3 1 4 8 8 11 15 20 25 29 29 29 31 32 33 36 37 37 38 40 44 46 46 46 46 48 51 52 50 48 46 47 50 51 51 49 46 45 46 45 44 42 42 43 43 42 43 43 44 45 45 46 44 38 38 40 40 49 57 48 43 56 63 56 53 53 56
4 5 5 6 4 4 6 3 5 5 4 5 7 9 6 7 9 5 6 11 13 17 19 18 18 16 13 13 11 7 4 2 4 6 6 9 14 19 24 27 28 29 31 32 35 37 37 37 39 42 45 45 45 45 47 50 52 52 51 52 52 52 54 54 53 51 49 48 48 46 42 40 41 44 44 43 42 43 44 45 45 45 45 41 39 40 38 42 52 55 49 48 63 62 55 56 57
5 5 7 6 4 4 5 4 5 5 5 4 1 4 6 3 6 6 4 6 9 13 15 17 18 17 15 15 11 6 3 1 4 4 5 9 13 18 24 27 29 30 30 32 35 37 36 38 41 43 45 45 45 46 48 50 51 53 53 53 53 54 57 57 53 51 52 54 54 51 48 44 41 42 43 44 43 44 44 44 44 45 46 44 40 40 37 37 44 54 52 40 48 61 56 55 59
3 4 4 5 4 1 4 3 3 2 4 3 3 1 7 2 4 8 7 8 9 9 10 14 19 19 18 15 11 6 2 1 3 4 7 10 14 20 25 27 29 29 30 33 36 37 37 39 42 43 44 44 45 47 48 49 52 55 53 50 49 50 52 55 54 51 50 53 53 51 50 49 45 42 42 43 43 43 44 44 44 46 46 44 41 39 36 35 39 48 50 44 42 56 65 58 60
4 4 4 4 1 4 5 2 3 4 2 4 2 3 7 7 5 8 11 10 9 8 8 11 18 21 18 14 10 5 0 2 3 5 8 10 15 21 25 28 28 28 30 34 37 38 38 41 43 43 43 45 46 48 49 50 52 53 51 48 49 50 50 52 53 51 50 51 51 49 49 49 46 43 41 42 43 42 42 43 43 45 45 42 42 40 36 33 35 42 49 48 42 40 62 64 62
5 5 4 3 4 6 5 4 6 2 3 5 6 5 5 8 4 5 9 10 9 11 11 10 16 20 18 15 10 3 1 1 3 5 7 11 17 22 25 28 28 28 31 36 38 38 39 42 43 43 44 46 47 48 49 51 51 50 47 46 49 50 49 49 49 51 51 50 50 50 49 45 42 41 38 38 41 41 41 41 41 44 44 42 43 40 36 35 33 37 46 48 41 36 46 63 63
4 4 2 2 4 5 4 5 4 2 1 7 7 6 4 6 2 4 6 8 10 11 10 10 16 21 18 15 10 2 1 0 3 4 7 12 18 22 25 27 27 29 34 38 39 39 41 44 44 44 46 47 48 49 50 52 51 48 46 46 48 50 49 48 48 50 49 48 49 49 46 40 38 38 38 38 39 39 39 40 41 43 44 42 42 39 35 35 32 33 40 45 47 49 46 58 66
1 2 2 4 4 2 1 2 1 3 4 8 8 10 7 5 3 6 6 6 9 10 9 10 15 20 19 14 8 4 2 1 2 4 8 14 19 24 26 27 28 31 36 39 39 40 43 45 45 47 48 49 49 50 51 52 51 48 46 46 47 48 48 47 46 46 47 47 47 45 42 40 38 37 37 39 40 39 39 39 40 43 43 41 40 39 36 36 34 31 35 41 48 55 50 46 65
3 3 3 4 5 3 4 3 3 2 6 6 6 8 7 6 5 6 7 5 8 13 13 13 13 18 20 13 8 5 3 2 2 5 10 17 24 27 27 27 29 33 38 39 39 41 44 45 46 49 50 51 52 52 53 53 51 49 48 47 47 47 47 45 44 45 45 44 43 42 43 44 44 40 36 34 35 37 39 40 39 41 41 39 39 40 39 37 35 32 33 38 45 53 50 40 50
4 4 4 3 4 4 3 3 0 3 7 4 2 2 4 9 7 6 9 7 8 14 17 18 17 19 19 12 8 6 3 3 2 7 14 22 26 26 25 27 30 35 38 39 40 43 45 46 47 49 52 52 53 54 54 54 53 51 49 48 47 47 46 43 43 43 42 41 42 45 46 46 46 45 40 34 31 32 36 39 40 41 40 38 40 41 40 38 36 33 32 35 42 49 47 40 36
4 3 3 2 1 3 5 4 3 4 5 4 1 2 3 7 5 6 9 7 9 16 20 22 22 20 17 11 9 7 5 3 4 11 19 24 24 23 24 27 32 36 37 38 42 45 45 47 48 50 52 53 54 55 55 55 55 53 50 49 48 47 46 44 42 41 42 43 45 45 45 43 43 44 43 39 34 32 33 36 38 41 42 39 39 41 38 37 36 34 33 32 37 45 46 41 40
4 4 5 4 3 2 5 3 4 6 5 4 1 1 4 3 4 5 5 9 13 20 23 22 20 17 14 12 10 7 5 2 8 15 19 21 21 21 24 29 33 35 36 39 43 45 45 47 48 50 52 53 54 55 56 56 56 55 52 51 50 48 47 45 43 41 41 42 42 42 43 43 44 44 44 41 38 34 33 34 35 38 43 40 37 38 37 36 37 34 34 31 33 40 44 46 44
3 2 4 2 4 4 4 3 3 3 6 5 3 3 5 4 2 3 6 10 13 18 20 21 19 16 14 12 9 6 2 5 12 16 18 18 19 22 26 30 33 33 36 40 43 44 44 46 48 50 51 53 54 55 55 55 55 56 55 54 53 50 48 47 44 42 41 42 42 43 45 46 46 45 44 41 39 35 33 33 32 33 39 40 36 36 37 36 37 35 33 32 32 35 40 47 44
1 2 3 4 4 4 1 2 0 2 5 6 3 4 5 0 1 1 6 7 8 10 12 16 17 15 14 11 8 3 3 8 11 13 15 16 19 23 27 31 31 33 38 42 43 43 44 45 47 49 51 53 54 55 55 55 55 57 57 56 55 52 50 49 46 44 44 44 43 43 44 46 47 46 42 40 39 36 34 33 32 31 33 37 36 36 36 36 35 36 34 32 31 33 37 44 43
4 3 4 3 2 2 2 1 3 2 5 6 3 7 8 2 2 2 5 7 8 8 7 11 14 14 13 10 6 1 3 6 9 11 13 16 20 25 29 30 30 33 40 42 42 43 43 45 46 48 51 53 54 55 56 57 57 57 58 58 57 55 53 51 49 47 45 45 44 43 45 47 47 44 39 37 37 37 35 34 32 31 31 33 36 36 35 35 35 34 35 33 32 31 34 41 44
4 3 2 1 1 2 2 2 2 2 6 7 2 6 7 5 5 6 9 11 12 10 8 8 10 12 13 10 7 3 2 4 8 10 13 17 22 27 29 30 31 36 41 41 41 42 44 45 46 47 50 51 52 53 55 57 57 56 57 58 58 57 56 54 53 50 47 45 44 44 45 45 43 40 36 35 36 37 36 34 31 29 29 30 34 36 34 35 35 34 35 35 33 31 32 38 42
3 1 2 1 2 3 2 2 2 3 6 7 5 6 4 5 7 12 14 14 14 11 9 7 9 13 14 11 9 6 3 4 8 10 14 20 23 27 29 30 34 39 41 41 41 43 44 45 47 48 50 51 52 52 53 55 56 56 58 59 59 59 57 56 54 50 47 45 44 43 43 44 42 38 36 35 36 37 37 37 33 29 28 28 31 35 35 36 36 35 35 35 34 32 32 35 41
3 2 2 2 2 1 1 2 3 3 7 5 5 9 6 3 4 11 15 14 13 12 9 7 10 15 15 12 10 6 2 4 7 11 17 21 24 27 29 32 37 40 41 41 41 42 44 46 47 48 50 51 53 53 54 55 55 56 58 59 60 59 57 57 54 50 47 45 44 43 42 43 42 39 36 35 35 36 36 37 36 32 28 27 28 32 35 37 37 35 35 35 34 32 31 34 38
6 6 6 7 5 3 2 5 3 4 6 3 4 12 9 3 3 7 10 10 10 11 10 7 11 17 15 12 10 4 2 4 7 13 19 23 25 28 31 35 39 41 41 41 42 43 44 46 48 49 50 50 52 54 54 55 56 57 59 60 60 59 57 56 54 49 47 45 44 42 42 43 42 38 36 34 34 35 36 36 37 35 30 28 27 29 32 35 35 35 35 35 33 33 31 32 36
Wind_Direction
8 357 350 96 80 43 47 73 90 8 67 73 310 97 341 10 83 57 37 30 74 29 30 51 40 30 21 19 98 64 53 27 41 102 74 54 352 1 5 356 354 352 353 8 3 356 357 356 355 354 355 355 352 347 341 336 330 323 317 309 303 295 288 281 277 273 271 269 266 268 270 272 273 277 281 288 293 294 296 297 293 295 293 281 273 265 264 263 259 253 250 250 247 245 245 251 254
9 3 341 59 50 28 29 59 76 22 57 43 356 83 341 10 48 73 76 70 92 15 22 40 53 41 32 36 95 71 46 36 65 104 61 14 347 353 355 351 349 350 355 2 1 358 359 359 352 348 349 349 346 343 338 336 332 328 321 314 309 300 293 283 280 274 270 271 269 270 268 268 273 275 278 283 287 288 290 291 290 294 297 293 290 283 271 262 262 260 253 250 246 245 243 246 250
4 3 340 2 44 28 347 48 83 70 75 82 3 338 19 46 46 108 114 99 79 40 33 37 64 37 32 47 70 95 58 43 51 66 28 8 360 355 349 350 348 349 357 358 3 359 356 0 353 344 339 337 334 332 328 326 326 326 322 318 312 304 296 284 280 277 274 273 270 272 271 271 274 276 278 281 284 285 283 284 287 290 295 295 293 292 284 270 263 260 255 251 247 243 240 243 248
359 3 3 353 41 31 21 61 135 112 100 129 63 332 30 76 33 61 115 99 74 55 44 37 65 34 37 39 39 79 56 43 38 33 24 14 13 6 359 4 358 354 2 357 360 356 350 355 353 344 332 328 324 321 318 314 315 316 315 312 310 305 300 292 285 280 278 278 276 273 271 273 274 275 277 279 281 282 279 279 283 287 290 287 286 291 291 286 277 269 262 256 250 242 237 240 245
353 359 25 20 36 24 60 61 48 94 116 159 116 316 24 81 25 18 120 102 78 65 50 48 59 37 57 49 49 54 18 27 31 31 35 29 29 26 24 23 17 18 18 4 352 350 349 351 351 344 327 318 314 312 309 305 304 306 307 304 302 301 298 296 293 285 278 278 280 278 273 273 273 274 274 275 275 275 277 277 278 283 287 280 277 281 281 281 282 279 276 272 266 252 240 238 241
359 22 26 21 31 12 66 55 38 88 166 149 120 205 74 63 21 37 110 100 82 70 57 56 40 75 85 69 64 53 29 32 29 30 37 34 32 30 30 25 24 28 30 24 4 356 354 351 346 340 327 314 307 304 300 297 295 298 301 300 298 295 293 292 293 290 282 278 278 278 277 277 276 274 273 271 270 270 273 275 276 280 282 276 270 268 265 267 271 272 271 273 273 269 257 244 239
21 31 22 24 35 24 86 98 162 131 35 113 128 166 117 56 27 41 81 100 88 72 60 50 50 89 101 92 68 46 38 40 35 35 37 36 31 25 24 20 17 21 25 22 16 8 2 358 352 340 328 316 306 301 296 294 291 291 293 295 295 292 290 288 289 288 284 281 279 277 276 275 273 274 275 272 271 272 272 274 276 279 277 272 267 262 260 258 260 261 259 260 261 263 264 257 246
38 28 29 49 46 27 82 97 202 164 74 114 125 126 98 59 44 29 47 104 127 96 61 41 60 90 75 88 81 35 35 37 41 45 37 36 31 22 11 8 6 9 13 9 9 6 2 359 358 352 339 324 309 300 294 291 290 288 287 288 291 290 289 287 286 285 283 281 278 277 278 275 274 276 276 273 271 272 274 276 276 278 275 271 268 262 259 256 257 258 254 253 254 255 257 260 255
42 31 34 60 49 13 28 28 22 117 92 102 93 92 84 71 66 34 10 30 123 104 48 32 57 100 82 79 76 28 26 29 40 42 30 28 23 18 6 7 6 4 4 2 1 356 358 356 352 350 346 340 324 310 297 292 288 287 285 285 285 286 287 286 285 284 284 282 278 277 278 277 278 279 278 275 275 273 273 276 276 275 273 271 272 267 260 257 257 257 254 250 251 254 254 254 255
37 36 33 65 54 8 353 222 71 101 106 114 98 89 81 80 74 50 44 35 103 93 45 72 72 88 90 74 58 22 19 17 21 19 18 21 16 14 12 16 14 11 10 7 4 358 358 356 354 347 342 339 333 326 311 299 291 287 285 284 283 282 282 283 283 282 282 282 281 279 278 276 278 279 279 279 278 276 273 275 275 271 269 268 270 270 265 259 257 256 255 251 247 251 253 251 249
22 12 41 62 51 5 295 158 138 135 125 115 82 73 76 84 82 44 51 62 80 72 51 83 91 95 93 77 58 22 14 13 11 13 14 14 12 16 22 28 27 27 27 23 20 14 11 7 4 357 348 340 333 328 322 314 302 294 288 285 284 282 280 280 280 280 279 278 280 281 281 280 280 280 279 279 278 277 277 277 277 274 269 266 266 267 267 264 259 256 254 251 248 248 250 251 247
10 348 56 77 115 230 206 149 149 132 59 50 33 59 79 78 90 36 54 80 75 64 48 34 90 107 99 87 58 19 19 22 20 24 14 9 17 26 31 36 37 36 36 34 31 29 27 21 17 13 6 355 345 336 329 325 318 309 299 291 287 286 284 281 279 278 277 275 277 278 280 280 280 280 280 280 278 277 277 277 277 276 272 267 266 265 266 265 261 258 255 252 250 249 249 251 249
15 13 71 112 196 198 158 124 151 110 37 338 218 127 94 76 79 67 86 98 83 70 36 22 78 106 97 102 47 21 24 25 27 27 15 23 29 35 38 40 40 37 36 34 33 33 32 29 26 23 19 13 4 354 343 335 328 323 317 309 297 291 287 286 284 281 279 276 275 275 276 277 278 279 279 279 278 276 276 276 275 273 271 269 270 268 265 264 263 260 257 256 252 250 250 253 251
18 20 90 186 284 139 135 100 121 93 64 252 247 114 108 91 83 80 96 93 72 86 58 35 91 105 96 111 42 29 30 26 27 24 23 37 37 42 42 42 41 38 37 34 33 32 31 30 28 25 24 22 17 11 1 349 339 331 327 325 318 306 295 289 286 284 283 280 278 276 276 276 277 278 278 278 277 277 276 276 274 272 269 268 271 270 266 264 263 262 260 259 255 252 250 253 253
14 347 96 128 336 341 146 97 113 102 127 240 56 100 99 93 111 84 90 93 64 90 101 47 66 105 79 89 59 42 37 25 25 25 29 39 40 46 44 44 41 38 36 32 31 28 27 27 25 24 23 23 21 17 13 5 357 346 337 330 326 320 312 302 292 286 285 283 282 279 279 278 278 279 279 278 277 278 277 276 275 271 266 266 270 270 267 264 263 263 262 260 257 254 251 252 254
27 264 79 64 323 317 255 76 97 96 137 238 78 106 99 82 123 82 63 100 79 78 89 65 72 100 84 84 81 52 40 26 24 23 25 38 42 45 44 43 39 37 35 29 27 24 22 21 19 19 17 18 16 15 14 12 9 2 355 345 334 325 319 315 308 298 290 288 287 285 283 282 281 282 282 282 280 279 278 277 275 270 266 266 269 269 268 266 264 263 262 261 258 255 252 251 253
29 85 64 10 289 198 262 94 101 122 160 358 62 85 102 97 108 68 57 98 91 84 86 82 86 96 90 90 90 64 49 28 25 22 28 40 41 40 39 36 33 32 31 27 24 20 17 16 14 12 10 10 8 8 7 7 8 6 3 359 353 344 332 322 316 311 304 297 292 289 288 286 284 284 284 285 283 280 277 277 275 271 268 267 268 268 268 267 266 264 261 260 257 255 253 251 251
23 95 73 319 227 167 222 141 99 125 124 22 54 68 98 117 34 71 87 96 96 90 90 93 94 92 94 97 93 78 60 41 42 40 43 44 40 38 35 32 30 27 26 23 20 17 14 12 10 7 5 3 1 0 359 359 359 358 359 358 358 354 349 340 328 319 312 307 301 295 292 290 289 288 288 288 288 284 278 276 275 272 270 268 267 267 268 268 267 263 261 260 258 256 253 251 249
44 92 74 244 223 197 121 89 70 94 113 71 41 62 97 86 10 90 103 104 104 97 93 97 95 93 97 98 92 83 69 58 52 47 47 44 39 37 34 31 29 26 23 19 17 14 12 9 6 3 1 358 355 354 353 352 351 351 351 350 351 350 350 348 342 333 322 314 307 302 298 295 294 293 292 291 291 289 283 277 274 272 270 268 266 266 266 267 267 264 261 259 257 255 252 250 248
39 65 32 241 240 253 54 76 88 88 94 74 21 51 91 41 23 115 114 99 98 106 118 108 100 101 100 98 93 83 69 60 54 49 47 42 38 36 34 32 29 26 21 16 14 11 8 6 3 0 357 354 351 349 347 346 345 344 343 343 343 343 343 342 342 340 334 325 315 306 299 295 295 296 295 292 291 291 288 281 274 271 270 268 266 265 264 264 265 264 261 258 255 253 250 249 248
342 98 207 242 303 318 2 60 76 67 74 62 22 54 50 9 17 149 135 97 57 106 127 123 116 114 108 102 94 82 70 62 56 50 47 42 37 34 32 31 29 23 17 13 10 7 6 3 0 357 355 352 349 347 345 343 341 338 336 336 336 336 337 336 335 335 334 332 326 317 305 296 292 292 294 293 292 292 289 283 278 274 271 269 268 265 263 263 263 263 261 258 253 251 249 248 247
338 251 217 270 16 329 327 37 46 44 64 54 46 54 341 350 49 151 151 122 118 124 121 122 121 120 113 106 96 81 71 62 57 52 48 43 35 31 27 24 23 19 13 11 9 7 4 2 360 357 355 353 350 349 347 345 342 339 337 334 332 331 331 331 330 329 328 329 327 323 316 305 293 288 289 289 291 294 293 286 279 277 273 269 268 267 265 264 263 262 260 257 253 250 249 247 245
325 277 303 24 12 335 326 12 30 28 57 49 29 353 312 87 78 113 125 114 130 131 126 124 120 119 115 112 100 81 71 62 56 50 45 41 33 26 22 19 18 17 13 10 8 6 4 2 360 357 356 355 353 352 350 349 346 344 341 339 336 333 331 329 327 325 324 324 322 319 318 314 303 292 288 287 287 289 293 288 279 275 273 270 267 266 267 265 263 261 259 257 253 249 247 246 244
161 266 287 288 321 322 317 337 9 22 66 28 359 332 295 129 108 101 111 119 131 130 128 126 121 125 127 119 102 85 75 63 56 48 39 37 32 24 20 18 16 15 13 9 6 5 2 1 358 356 355 354 354 353 352 351 349 347 345 343 341 338 335 332 330 326 322 320 318 315 312 311 308 300 293 289 286 283 286 286 282 279 276 271 268 266 266 265 263 260 258 255 250 248 247 245 243
160 244 280 244 288 291 299 310 339 9 97 0 6 4 327 150 138 117 124 133 136 136 135 133 132 134 135 125 106 89 78 63 52 45 35 33 30 25 20 17 14 13 11 8 5 3 0 359 357 355 354 353 352 350 349 349 348 347 346 345 343 342 338 335 334 331 326 319 314 312 309 307 306 304 297 292 289 285 283 283 284 285 282 273 266 264 264 263 263 259 255 253 249 246 246 245 242
177 145 305 304 286 273 280 296 328 305 180 358 13 7 3 136 136 113 143 145 144 146 143 142 141 135 131 124 108 88 77 62 49 41 33 30 28 24 19 16 14 11 9 6 3 1 359 357 355 353 351 350 349 348 347 346 345 345 344 343 341 341 338 335 335 333 329 325 319 311 306 305 305 304 301 295 292 288 284 282 282 283 283 277 265 261 261 260 261 259 253 250 247 244 244 245 243
247 20 328 305 284 266 249 259 289 241 239 343 14 331 305 152 141 109 162 154 153 152 143 149 146 135 131 120 102 80 69 58 47 39 32 27 25 22 18 15 12 10 7 4 3 360 357 355 353 350 348 348 348 347 346 345 344 342 341 339 338 337 335 333 332 330 327 326 325 319 308 303 303 303 301 299 296 292 286 283 282 280 279 277 271 264 260 259 260 256 251 250 248 244 243 243 243
328 359 330 301 277 257 232 231 249 252 254 319 346 317 253 201 178 170 168 161 163 156 143 149 145 138 134 117 98 75 65 55 42 34 31 26 24 20 17 13 10 8 5 3 2 359 356 354 351 349 347 347 347 347 346 345 344 342 340 338 335 333 331 330 328 327 325 324 324 324 317 307 302 301 301 300 297 294 291 286 282 281 279 276 275 271 264 261 260 254 249 249 248 244 242 241 241
318 12 334 314 334 276 237 224 228 226 241 304 337 341 252 232 184 168 166 163 165 156 145 147 143 142 137 120 100 76 64 52 38 32 31 28 23 18 15 12 8 6 3 2 0 357 354 352 350 348 347 345 346 346 345 344 343 341 339 337 335 332 330 328 325 324 323 322 320 321 320 315 307 303 301 301 298 295 294 290 284 282 283 280 276 274 269 263 259 252 247 246 243 240 238 237 237
303 165 128 28 24 325 243 221 218 202 232 289 347 332 269 244 166 166 165 165 161 149 146 148 145 144 136 124 104 83 68 49 41 35 30 28 22 16 13 11 8 4 1 0 359 355 352 350 349 348 346 344 345 345 343 342 340 339 337 335 333 331 329 327 325 323 321 319 317 316 317 317 312 306 303 302 300 297 294 291 287 282 283 286 281 275 270 266 260 251 245 241 238 236 235 235 233
71 104 68 93 92 289 249 211 192 180 241 251 90 273 264 203 166 169 169 170 162 150 149 150 148 144 135 126 105 91 72 45 40 36 29 26 20 13 11 9 6 3 0 360 357 353 350 349 349 347 345 344 344 343 341 339 337 335 334 332 331 329 327 324 323 322 320 317 314 312 313 313 312 308 306 304 303 300 296 292 289 284 281 285 286 280 273 268 262 254 245 239 235 233 234 234 234
42 99 324 345 152 271 279 230 186 177 238 220 155 266 262 187 178 175 170 172 165 153 153 155 151 145 138 128 106 93 67 40 37 35 29 24 17 12 11 7 5 3 0 359 355 352 349 349 348 345 344 344 342 341 339 337 334 333 331 329 328 326 324 322 320 318 317 315 313 310 309 310 311 309 306 307 306 304 300 295 291 288 283 281 284 285 279 268 261 253 243 235 232 232 231 231 232
356 109 255 279 272 288 297 289 209 177 199 223 188 237 273 212 183 178 172 172 166 155 157 157 154 150 142 129 110 97 63 39 37 37 30 21 13 10 9 6 4 2 360 357 353 351 349 348 345 343 344 343 340 339 338 336 333 331 329 327 326 325 323 321 318 316 314 313 312 309 308 308 309 307 305 306 307 305 303 299 294 291 286 281 280 285 285 271 261 251 238 232 231 232 231 229 228
324 18 282 265 290 293 273 309 273 182 182 240 222 227 261 244 181 180 179 175 166 158 160 159 155 152 144 131 115 104 69 41 39 42 27 11 4 6 6 4 2 1 359 356 352 350 348 345 342 342 343 341 340 338 337 334 331 329 327 326 325 323 322 320 318 315 313 311 310 309 309 308 306 304 304 305 306 305 305 303 299 295 288 282 277 281 289 274 261 255 243 236 234 232 231 228 226
252 272 283 287 301 286 254 280 259 176 198 242 254 259 264 251 185 185 183 180 173 163 162 161 157 152 144 135 123 109 73 48 45 40 14 355 352 359 3 3 1 360 357 354 351 350 347 343 341 342 342 340 339 336 334 331 328 328 327 327 325 323 321 320 318 314 311 310 308 308 308 306 303 301 302 303 304 303 304 305 303 300 292 285 276 273 288 280 260 254 245 238 234 230 229 229 226
220 236 227 256 280 275 252 258 233 167 192 246 242 250 261 219 194 198 188 182 176 166 163 161 157 152 145 135 133 120 82 61 41 21 356 341 342 354 0 2 1 357 355 352 350 348 344 342 341 342 341 339 336 333 332 330 328 328 327 326 324 321 320 318 316 312 310 308 307 307 306 303 301 299 300 301 301 300 301 303 304 304 297 290 278 267 279 282 261 251 244 236 231 223 223 223 219
230 254 245 251 261 271 265 268 260 160 172 249 231 237 259 225 210 211 193 181 173 168 165 162 157 153 150 141 143 129 100 76 23 5 338 330 337 351 358 360 358 356 354 351 349 346 344 342 340 340 339 335 332 330 330 329 328 327 325 324 321 319 317 315 314 311 308 306 305 306 304 301 299 297 299 298 297 297 298 301 302 304 302 294 284 269 268 275 268 256 245 235 229 218 212 212 206
252 248 262 271 254 261 269 249 222 156 148 266 250 251 261 248 246 219 187 179 179 176 170 164 159 155 156 150 153 144 115 91 7 355 329 331 340 350 355 357 356 354 352 349 347 345 342 341 339 339 336 331 329 329 329 329 327 326 323 320 318 316 314 312 311 309 307 304 303 304 303 300 297 295 296 294 294 294 295 299 299 302 304 297 290 277 266 269 275 271 246 227 223 218 211 206 200
246 254 279 282 260 269 286 273 207 74 343 272 278 272 259 248 256 219 187 187 187 183 176 167 162 158 161 161 162 160 140 93 353 345 332 337 342 348 351 354 355 352 350 348 346 343 341 340 339 336 332 329 329 329 330 329 326 324 322 319 317 314 311 310 309 307 306 304 303 303 302 298 296 294 292 290 291 292 293 295 298 299 302 300 295 286 274 267 271 279 253 223 216 216 211 206 203
242 242 258 265 266 276 282 301 326 327 289 260 278 277 262 244 249 218 191 187 177 182 177 167 167 162 164 170 171 168 157 205 335 342 336 337 339 344 349 351 353 351 350 348 344 342 340 339 336 331 330 330 331 331 329 327 325 325 324 321 316 311 309 309 308 307 306 306 306 306 303 299 295 292 292 291 289 290 291 292 296 297 297 300 300 293 284 271 266 273 265 230 214 211 206 203 205
255 220 219 245 258 240 240 286 329 327 314 284 289 289 272 232 225 208 176 169 160 168 163 158 166 165 167 173 172 164 156 221 326 342 331 332 337 343 348 349 350 350 350 346 342 340 338 335 331 329 330 331 332 331 328 326 326 327 325 320 316 312 311 310 308 307 305 303 303 303 302 299 297 292 289 290 288 288 289 290 292 294 295 296 299 298 291 280 268 267 272 243 212 205 203 200 201
286 240 218 219 206 235 266 338 360 343 314 290 345 307 285 240 196 187 152 157 166 164 156 157 165 168 173 171 163 154 153 252 320 338 329 334 339 343 347 349 350 350 348 343 339 337 334 330 329 331 332 331 331 329 328 328 328 327 324 320 318 316 314 313 311 308 306 305 303 299 295 293 296 294 290 288 287 286 286 288 289 289 293 294 295 301 295 286 275 266 270 262 221 208 205 200 197
283 250 185 156 137 254 286 338 4 286 270 272 94 248 277 287 174 184 173 179 185 175 169 169 171 176 179 171 163 158 157 295 311 332 338 338 340 343 347 349 350 349 344 339 336 334 331 329 330 333 332 331 330 329 329 330 329 328 327 323 319 316 314 312 311 309 307 307 307 305 299 291 288 289 290 288 286 285 284 284 287 286 289 291 292 301 300 289 281 270 266 271 254 221 207 202 198
245 238 135 120 143 264 261 235 238 237 282 293 233 207 267 279 235 189 172 181 193 189 189 183 181 182 176 169 166 161 158 323 324 339 341 336 338 343 346 348 349 345 338 336 334 332 329 330 332 333 332 330 330 330 330 330 330 329 328 324 319 316 313 311 310 308 307 308 306 308 308 298 287 284 287 290 286 284 284 283 285 284 285 289 291 296 303 295 283 277 268 268 275 240 207 201 200
245 213 161 182 217 236 239 222 244 273 22 291 235 179 247 271 255 164 162 186 207 199 192 190 186 180 170 168 169 162 322 317 339 341 334 332 338 342 346 348 346 339 335 333 332 330 329 331 332 332 332 331 332 332 331 330 331 330 328 323 319 317 315 311 308 306 306 307 305 307 312 306 294 286 284 291 291 285 284 284 283 282 282 287 291 291 301 302 286 279 275 266 274 270 224 205 201
237 194 203 263 243 239 227 221 252 34 29 260 226 167 218 264 238 142 163 206 217 201 187 189 184 176 168 168 171 184 220 246 341 330 326 332 340 344 347 347 341 334 332 332 332 331 331 332 332 332 332 333 333 333 332 331 332 331 328 324 319 318 316 311 307 306 306 306 305 308 313 311 303 295 286 285 291 290 286 284 281 281 283 286 288 291 299 305 294 279 278 271 266 273 254 216 203
150 69 352 328 294 270 143 192 71 68 260 256 218 185 201 269 252 162 180 221 202 179 173 186 184 172 166 169 176 183 180 188 317 311 323 335 342 347 348 344 336 330 330 332 333 333 332 333 333 333 333 334 334 333 332 332 332 331 328 325 321 318 317 314 309 307 307 306 305 306 308 307 305 303 296 287 287 291 291 287 283 280 282 285 285 290 298 304 302 286 276 275 266 266 269 234 206
70 66 36 346 312 356 38 4 52 122 255 261 226 202 195 237 246 189 217 239 175 169 174 180 179 167 164 170 179 173 177 218 287 307 330 344 348 349 347 339 332 328 329 332 333 332 333 334 333 333 334 335 335 334 333 332 332 331 328 326 323 320 318 316 311 308 308 306 304 304 305 304 302 299 299 295 291 294 294 290 286 281 280 284 284 289 296 299 303 296 278 275 270 261 270 265 217
76 81 63 10 325 351 356 309 187 215 249 248 181 160 210 239 249 208 222 231 179 174 175 170 164 161 162 167 174 174 183 215 267 326 344 351 350 347 341 333 328 327 329 332 333 333 333 335 334 333 334 335 334 333 332 332 332 330 329 328 326 324 320 316 311 309 308 304 301 303 304 305 303 299 295 294 294 297 299 295 288 282 279 283 286 287 292 295 299 300 285 274 274 263 263 279 248
136 128 118 138 334 326 296 270 270 277 269 250 117 58 269 263 276 224 208 199 167 160 160 158 154 156 162 163 167 176 183 207 308 346 353 352 347 342 334 328 327 328 331 332 332 333 334 335 335 333 333 334 333 333 332 331 331 330 330 330 328 326 322 317 311 307 304 302 302 302 302 302 303 301 296 291 289 290 293 296 291 284 280 281 285 284 286 292 295 298 292 275 273 270 259 270 273
188 164 136 158 160 224 268 254 264 290 289 259 235 306 240 220 295 272 179 138 136 142 146 148 150 155 161 161 165 178 189 255 343 352 352 347 341 336 330 327 328 329 331 331 331 333 335 335 334 332 332 333 332 332 331 330 331 332 331 330 330 327 323 318 312 307 305 303 303 300 299 300 300 300 297 290 288 286 284 289 293 287 281 278 280 282 283 289 293 294 295 282 271 274 263 260 273
236 133 112 187 181 188 250 214 205 294 306 273 215 228 226 188 326 355 115 123 129 138 144 146 151 156 157 163 169 178 216 343 350 349 346 341 335 331 328 328 329 330 330 330 331 333 335 334 333 331 331 331 331 331 330 330 330 331 331 331 331 328 325 321 314 309 305 301 299 298 297 298 297 298 297 289 284 284 281 283 291 291 282 276 276 281 281 284 292 292 293 289 273 271 269 259 267
207 135 174 227 178 146 235 257 18 41 297 275 203 246 273 178 340 54 120 135 141 149 152 151 156 159 159 166 170 174 335 344 343 342 340 334 330 329 329 330 331 330 330 330 332 334 334 333 332 331 331 331 332 331 330 330 330 331 332 331 331 329 326 322 316 310 306 302 300 299 296 295 296 297 297 289 282 282 284 283 288 293 286 276 273 278 282 281 288 292 290 290 280 269 270 259 258
143 180 227 225 128 95 118 264 336 52 265 270 185 243 261 173 206 227 159 165 174 183 174 159 163 163 162 166 165 196 322 331 332 337 335 329 330 330 330 331 330 329 330 331 334 334 334 333 331 331 331 331 331 331 331 331 331 331 332 331 331 330 327 323 319 313 308 304 301 298 297 296 297 298 297 291 283 282 286 285 284 290 290 282 274 273 280 280 282 290 288 287 284 270 270 263 253
139 197 254 133 174 259 131 150 264 233 268 272 228 252 247 192 192 195 190 193 190 192 182 170 175 169 164 167 169 191 252 311 329 336 332 329 331 331 331 331 328 329 331 333 334 334 333 333 332 331 331 330 329 330 330 331 331 331 331 331 330 329 328 325 322 318 313 307 303 300 299 299 299 301 300 294 286 281 283 284 280 283 291 290 281 273 275 278 279 285 287 285 285 274 268 267 256
89 34 316 91 197 225 163 159 189 203 266 273 291 298 258 198 188 181 191 200 188 185 183 179 185 176 169 172 175 187 220 316 334 335 333 332 333 333 332 329 327 329 332 334 334 333 333 333 333 332 331 331 330 330 329 329 331 332 331 331 330 329 328 327 324 320 315 310 305 302 300 300 300 300 300 295 288 283 283 284 278 277 287 291 286 279 274 275 277 280 285 284 286 279 268 269 259
145 176 218 205 184 145 219 232 157 193 254 262 293 287 256 188 182 179 188 196 186 179 179 184 185 176 172 176 179 186 244 328 334 335 336 335 334 335 333 327 327 330 333 334 334 333 334 334 333 332 331 331 332 331 330 330 330 332 331 331 332 330 329 328 325 320 316 311 308 304 301 301 300 297 296 293 288 285 285 284 278 273 282 286 285 283 274 272 275 277 282 284 286 283 268 268 263
180 188 191 199 193 148 247 254 193 199 239 211 247 270 262 198 181 182 179 185 181 173 172 184 183 174 171 176 177 186 303 324 334 338 338 338 337 336 332 327 328 332 333 334 334 334 334 334 333 332 332 332 331 331 330 330 331 332 332 332 332 332 329 328 326 321 318 314 310 306 302 301 300 297 295 293 290 288 286 285 279 272 276 280 282 283 275 271 275 275 281 284 285 285 271 265 264